| time (UTC) | temp C | wind direction | speed KPH | gust KPH | rain 1hr cm | rain 24hr cm | rain mn cm | humidity % | barometer mb |
| 20260510233504 | 5 | 0 | 0.0 | 0.0 | 0.00 | 0.00 | 0.00 | 74 | 994.7 |
| 20260510233004 | 5 | 0 | 0.0 | 0.0 | 0.00 | 0.00 | 0.00 | 74 | 994.6 |
| 20260510232504 | 5 | 0 | 0.0 | 0.0 | 0.00 | 0.00 | 0.00 | 73 | 994.8 |
| 20260510232004 | 5 | 0 | 0.0 | 0.0 | 0.00 | 0.00 | 0.00 | 72 | 994.7 |
| 20260510231504 | 5 | 0 | 0.0 | 0.0 | 0.00 | 0.00 | 0.00 | 72 | 994.4 |
| 20260510231215 | 5 | 0 | 0.0 | 0.0 | 0.00 | 0.00 | 0.00 | 72 | 994.9 |
| 20260510230504 | 5 | 0 | 0.0 | 0.0 | 0.00 | 0.00 | 0.00 | 71 | 994.8 |
| 20260510230006 | 5 | 0 | 0.0 | 0.0 | 0.00 | 0.00 | 0.00 | 71 | 995.1 |
| 20260510225504 | 5 | 0 | 0.0 | 0.0 | 0.00 | 0.00 | 0.00 | 70 | 995.2 |
| 20260510225004 | 5 | 0 | 0.0 | 0.0 | 0.00 | 0.00 | 0.00 | 70 | 995.2 |
| 20260510224504 | 6 | 0 | 0.0 | 0.0 | 0.00 | 0.00 | 0.00 | 70 | 995.2 |
| 20260510224004 | 6 | 0 | 0.0 | 0.0 | 0.00 | 0.00 | 0.00 | 70 | 995.3 |
| 20260510223504 | 6 | 0 | 0.0 | 0.0 | 0.00 | 0.00 | 0.00 | 70 | 995.3 |
| 20260510223004 | 6 | 0 | 0.0 | 0.0 | 0.00 | 0.00 | 0.00 | 70 | 995.4 |
| 20260510222504 | 6 | 0 | 0.0 | 0.0 | 0.00 | 0.00 | 0.00 | 70 | 995.4 |
| 20260510222004 | 6 | 0 | 0.0 | 0.0 | 0.00 | 0.00 | 0.00 | 70 | 995.6 |
| 20260510221504 | 6 | 0 | 0.0 | 0.0 | 0.00 | 0.00 | 0.00 | 70 | 995.6 |
| 20260510221004 | 6 | 0 | 0.0 | 0.0 | 0.00 | 0.00 | 0.00 | 69 | 995.7 |
| 20260510220714 | 6 | 0 | 0.0 | 0.0 | 0.00 | 0.00 | 0.00 | 70 | 995.7 |
| 20260510220004 | 6 | 0 | 0.0 | 0.0 | 0.00 | 0.00 | 0.00 | 70 | 995.9 |
| 20260510215504 | 6 | 0 | 0.0 | 0.0 | 0.00 | 0.00 | 0.00 | 69 | 995.8 |
| 20260510215004 | 7 | 0 | 0.0 | 0.0 | 0.00 | 0.00 | 0.00 | 68 | 995.8 |
| 20260510214504 | 7 | 0 | 0.0 | 0.0 | 0.00 | 0.00 | 0.00 | 67 | 995.7 |
| 20260510214004 | 7 | 0 | 0.0 | 0.0 | 0.00 | 0.00 | 0.00 | 67 | 995.8 |
| 20260510213504 | 7 | 0 | 0.0 | 0.0 | 0.00 | 0.00 | 0.00 | 66 | 995.8 |
| 20260510213215 | 7 | 0 | 0.0 | 0.0 | 0.00 | 0.00 | 0.00 | 65 | 995.8 |
| 20260510212718 | 7 | 0 | 0.0 | 0.0 | 0.00 | 0.00 | 0.00 | 65 | 995.7 |
| 20260510212004 | 7 | 0 | 0.0 | 0.0 | 0.00 | 0.00 | 0.00 | 61 | 995.9 |
| 20260510211504 | 7 | 0 | 0.0 | 0.0 | 0.00 | 0.00 | 0.00 | 61 | 995.8 |
| 20260510211004 | 7 | 0 | 0.0 | 0.0 | 0.00 | 0.00 | 0.00 | 60 | 996.0 |
| 20260510210504 | 7 | 0 | 0.0 | 0.0 | 0.00 | 0.00 | 0.00 | 60 | 995.9 |
| 20260510210004 | 8 | 180 | 0.0 | 1.6 | 0.00 | 0.00 | 0.00 | 59 | 996.0 |
| 20260510205504 | 8 | 180 | 0.0 | 1.6 | 0.00 | 0.00 | 0.00 | 57 | 995.9 |
| 20260510205004 | 8 | 180 | 0.0 | 1.6 | 0.00 | 0.00 | 0.00 | 55 | 995.8 |
| 20260510204504 | 8 | 165 | 0.0 | 3.2 | 0.00 | 0.00 | 0.00 | 55 | 995.9 |
| 20260510204004 | 8 | 155 | 1.6 | 3.2 | 0.00 | 0.00 | 0.00 | 55 | 995.9 |
| 20260510203504 | 8 | 141 | 0.0 | 3.2 | 0.00 | 0.00 | 0.00 | 54 | 996.0 |
| 20260510203004 | 8 | 168 | 0.0 | 3.2 | 0.00 | 0.00 | 0.00 | 54 | 995.8 |
| 20260510202504 | 9 | 158 | 0.0 | 3.2 | 0.00 | 0.00 | 0.00 | 53 | 995.8 |
| 20260510202004 | 9 | 131 | 0.0 | 1.6 | 0.00 | 0.00 | 0.00 | 53 | 995.8 |
| 20260510201504 | 9 | 112 | 0.0 | 3.2 | 0.00 | 0.00 | 0.00 | 52 | 995.9 |
| 20260510201004 | 10 | 120 | 0.0 | 3.2 | 0.00 | 0.00 | 0.00 | 52 | 996.1 |
| 20260510200504 | 10 | 125 | 0.0 | 3.2 | 0.00 | 0.00 | 0.00 | 52 | 996.1 |
| 20260510200218 | 10 | 118 | 1.6 | 4.8 | 0.00 | 0.00 | 0.00 | 51 | 996.1 |
| 20260510195504 | 10 | 87 | 1.6 | 4.8 | 0.00 | 0.00 | 0.00 | 51 | 996.0 |
| 20260510195004 | 10 | 109 | 1.6 | 3.2 | 0.00 | 0.00 | 0.00 | 50 | 996.2 |
| 20260510194504 | 10 | 124 | 1.6 | 4.8 | 0.00 | 0.00 | 0.00 | 50 | 996.1 |
| 20260510194215 | 10 | 143 | 0.0 | 6.4 | 0.00 | 0.00 | 0.00 | 50 | 996.3 |
| 20260510193504 | 10 | 152 | 3.2 | 6.4 | 0.00 | 0.00 | 0.00 | 49 | 996.1 |
| 20260510193004 | 11 | 128 | 1.6 | 6.4 | 0.00 | 0.00 | 0.00 | 48 | 996.1 |
| 20260510192504 | 11 | 94 | 0.0 | 6.4 | 0.00 | 0.00 | 0.00 | 47 | 996.1 |
| 20260510192004 | 11 | 57 | 1.6 | 4.8 | 0.00 | 0.00 | 0.00 | 46 | 996.3 |
| 20260510191505 | 11 | 65 | 3.2 | 4.8 | 0.00 | 0.00 | 0.00 | 46 | 996.2 |
| 20260510191004 | 11 | 63 | 3.2 | 6.4 | 0.00 | 0.00 | 0.00 | 45 | 996.2 |
| 20260510190504 | 11 | 51 | 1.6 | 6.4 | 0.00 | 0.00 | 0.00 | 45 | 996.2 |
| 20260510190004 | 11 | 46 | 1.6 | 4.8 | 0.00 | 0.00 | 0.00 | 45 | 996.3 |
| 20260510185504 | 11 | 63 | 1.6 | 3.2 | 0.00 | 0.00 | 0.00 | 45 | 996.4 |
| 20260510185215 | 11 | 91 | 0.0 | 3.2 | 0.00 | 0.00 | 0.00 | 45 | 996.2 |
| 20260510184504 | 11 | 78 | 0.0 | 6.4 | 0.00 | 0.00 | 0.00 | 44 | 996.4 |
| 20260510184004 | 12 | 71 | 1.6 | 6.4 | 0.00 | 0.00 | 0.00 | 44 | 996.4 |
| 20260510183504 | 12 | 57 | 3.2 | 6.4 | 0.00 | 0.00 | 0.00 | 44 | 996.2 |
| 20260510183217 | 12 | 43 | 4.8 | 6.4 | 0.00 | 0.00 | 0.00 | 44 | 996.2 |
| 20260510182504 | 12 | 77 | 1.6 | 6.4 | 0.00 | 0.00 | 0.00 | 43 | 996.4 |
| 20260510182004 | 12 | 110 | 0.0 | 3.2 | 0.00 | 0.00 | 0.00 | 43 | 996.3 |
| 20260510181504 | 12 | 56 | 1.6 | 3.2 | 0.00 | 0.00 | 0.00 | 44 | 996.3 |
| 20260510181004 | 12 | 30 | 1.6 | 3.2 | 0.00 | 0.00 | 0.00 | 44 | 996.4 |
| 20260510180504 | 12 | 62 | 0.0 | 6.4 | 0.00 | 0.00 | 0.00 | 43 | 996.3 |
| 20260510180004 | 12 | 75 | 3.2 | 6.4 | 0.00 | 0.00 | 0.00 | 40 | 996.3 |
| 20260510175504 | 12 | 61 | 3.2 | 8.0 | 0.00 | 0.00 | 0.00 | 41 | 996.4 |
| 20260510175004 | 12 | 47 | 3.2 | 8.0 | 0.00 | 0.00 | 0.00 | 41 | 996.3 |
| 20260510174504 | 12 | 43 | 3.2 | 8.0 | 0.00 | 0.00 | 0.00 | 40 | 996.3 |
| 20260510174004 | 13 | 44 | 6.4 | 8.0 | 0.00 | 0.00 | 0.00 | 40 | 996.3 |
| 20260510173504 | 13 | 62 | 4.8 | 8.0 | 0.00 | 0.00 | 0.00 | 40 | 996.4 |
| 20260510173004 | 13 | 70 | 3.2 | 6.4 | 0.00 | 0.00 | 0.00 | 40 | 996.4 |
| 20260510172504 | 13 | 82 | 3.2 | 8.0 | 0.00 | 0.00 | 0.00 | 40 | 996.2 |
| 20260510172004 | 13 | 79 | 4.8 | 8.0 | 0.00 | 0.00 | 0.00 | 40 | 996.3 |
| 20260510171504 | 13 | 72 | 6.4 | 8.0 | 0.00 | 0.00 | 0.00 | 40 | 996.3 |
| 20260510171004 | 13 | 26 | 3.2 | 11.3 | 0.00 | 0.00 | 0.00 | 40 | 996.2 |
| 20260510170504 | 13 | 27 | 1.6 | 11.3 | 0.00 | 0.00 | 0.00 | 40 | 996.6 |
| 20260510170004 | 13 | 18 | 3.2 | 6.4 | 0.00 | 0.00 | 0.00 | 40 | 996.8 |
| 20260510165718 | 13 | 19 | 3.2 | 8.0 | 0.00 | 0.00 | 0.00 | 40 | 996.9 |
| 20260510165004 | 13 | 62 | 3.2 | 8.0 | 0.00 | 0.00 | 0.00 | 39 | 996.6 |
| 20260510164504 | 13 | 34 | 3.2 | 6.4 | 0.00 | 0.00 | 0.00 | 38 | 996.8 |
| 20260510164004 | 13 | 7 | 3.2 | 4.8 | 0.00 | 0.00 | 0.00 | 38 | 996.8 |
| 20260510163504 | 13 | 39 | 3.2 | 6.4 | 0.00 | 0.00 | 0.00 | 38 | 996.8 |
| 20260510163004 | 14 | 82 | 3.2 | 6.4 | 0.00 | 0.00 | 0.00 | 37 | 996.8 |
| 20260510162504 | 14 | 74 | 3.2 | 11.3 | 0.00 | 0.00 | 0.00 | 36 | 996.9 |
| 20260510162004 | 15 | 58 | 3.2 | 11.3 | 0.00 | 0.00 | 0.00 | 36 | 996.9 |
| 20260510161717 | 14 | 55 | 3.2 | 9.7 | 0.00 | 0.00 | 0.00 | 37 | 997.0 |
| 20260510161004 | 14 | 72 | 6.4 | 9.7 | 0.00 | 0.00 | 0.00 | 36 | 997.2 |
| 20260510160504 | 14 | 52 | 3.2 | 6.4 | 0.00 | 0.00 | 0.00 | 34 | 997.0 |
| 20260510160004 | 15 | 9 | 3.2 | 6.4 | 0.00 | 0.00 | 0.00 | 35 | 997.3 |
| 20260510155504 | 15 | 7 | 3.2 | 9.7 | 0.00 | 0.00 | 0.00 | 35 | 997.0 |
| 20260510155004 | 15 | 37 | 3.2 | 9.7 | 0.00 | 0.00 | 0.00 | 35 | 997.3 |
| 20260510154504 | 15 | 34 | 6.4 | 9.7 | 0.00 | 0.00 | 0.00 | 35 | 997.3 |
| 20260510154004 | 15 | 42 | 4.8 | 12.9 | 0.00 | 0.00 | 0.00 | 33 | 997.3 |
| 20260510153504 | 16 | 41 | 3.2 | 12.9 | 0.00 | 0.00 | 0.00 | 32 | 997.3 |
| 20260510153004 | 17 | 22 | 3.2 | 6.4 | 0.00 | 0.00 | 0.00 | 34 | 997.3 |
| 20260510152504 | 16 | 344 | 1.6 | 6.4 | 0.00 | 0.00 | 0.00 | 36 | 997.2 |
| 20260510152214 | 15 | 47 | 1.6 | 8.0 | 0.00 | 0.00 | 0.00 | 37 | 997.2 |
| 20260510151504 | 15 | 37 | 3.2 | 8.0 | 0.00 | 0.00 | 0.00 | 34 | 997.2 |
| 20260510151004 | 15 | 26 | 3.2 | 9.7 | 0.00 | 0.00 | 0.00 | 33 | 997.4 |
| 20260510150504 | 16 | 40 | 3.2 | 9.7 | 0.00 | 0.00 | 0.00 | 33 | 997.3 |
| 20260510150004 | 17 | 48 | 6.4 | 9.7 | 0.00 | 0.00 | 0.00 | 36 | 997.4 |
| 20260510145504 | 15 | 28 | 3.2 | 8.0 | 0.00 | 0.00 | 0.00 | 37 | 997.7 |
| 20260510145004 | 14 | 43 | 3.2 | 9.7 | 0.00 | 0.00 | 0.00 | 36 | 997.9 |
| 20260510144504 | 15 | 84 | 4.8 | 11.3 | 0.00 | 0.00 | 0.00 | 34 | 997.6 |
| 20260510144004 | 16 | 100 | 6.4 | 11.3 | 0.00 | 0.00 | 0.00 | 33 | 997.8 |
| 20260510143504 | 16 | 73 | 3.2 | 6.4 | 0.00 | 0.00 | 0.00 | 34 | 997.9 |
| 20260510143004 | 15 | 70 | 3.2 | 11.3 | 0.00 | 0.00 | 0.00 | 37 | 998.0 |
| 20260510142504 | 15 | 63 | 6.4 | 14.5 | 0.00 | 0.00 | 0.00 | 35 | 997.8 |
| 20260510142004 | 15 | 62 | 6.4 | 14.5 | 0.00 | 0.00 | 0.00 | 34 | 998.1 |
| 20260510141718 | 15 | 61 | 6.4 | 14.5 | 0.00 | 0.00 | 0.00 | 34 | 997.8 |
| 20260510141004 | 16 | 39 | 3.2 | 12.9 | 0.00 | 0.00 | 0.00 | 34 | 998.0 |
| 20260510140504 | 16 | 57 | 3.2 | 12.9 | 0.00 | 0.00 | 0.00 | 36 | 998.1 |
| 20260510140004 | 15 | 82 | 3.2 | 12.9 | 0.00 | 0.00 | 0.00 | 36 | 998.4 |
| 20260510135504 | 15 | 53 | 4.8 | 12.9 | 0.00 | 0.00 | 0.00 | 34 | 998.3 |
| 20260510135004 | 15 | 17 | 4.8 | 12.9 | 0.00 | 0.00 | 0.00 | 33 | 998.3 |
| 20260510134505 | 16 | 43 | 3.2 | 8.0 | 0.00 | 0.00 | 0.00 | 36 | 998.4 |
| 20260510134004 | 16 | 52 | 3.2 | 14.5 | 0.00 | 0.00 | 0.00 | 36 | 998.5 |
| 20260510133504 | 15 | 38 | 4.8 | 14.5 | 0.00 | 0.00 | 0.00 | 37 | 998.5 |
| 20260510133004 | 15 | 41 | 6.4 | 16.1 | 0.00 | 0.00 | 0.00 | 36 | 998.5 |
| 20260510132504 | 15 | 47 | 4.8 | 16.1 | 0.00 | 0.00 | 0.00 | 35 | 998.8 |
| 20260510132004 | 16 | 25 | 6.4 | 9.7 | 0.00 | 0.00 | 0.00 | 35 | 998.8 |
| 20260510131504 | 16 | 17 | 4.8 | 9.7 | 0.00 | 0.00 | 0.00 | 35 | 999.0 |
| 20260510131004 | 16 | 26 | 4.8 | 6.4 | 0.00 | 0.00 | 0.00 | 37 | 998.8 |
| 20260510130504 | 16 | 35 | 3.2 | 12.9 | 0.00 | 0.00 | 0.00 | 38 | 998.9 |
| 20260510130004 | 15 | 47 | 4.8 | 12.9 | 0.00 | 0.00 | 0.00 | 40 | 999.1 |
| 20260510125504 | 15 | 58 | 6.4 | 12.9 | 0.00 | 0.00 | 0.00 | 40 | 999.3 |
| 20260510125004 | 14 | 50 | 3.2 | 11.3 | 0.00 | 0.00 | 0.00 | 37 | 999.3 |
| 20260510124504 | 15 | 61 | 4.8 | 11.3 | 0.00 | 0.00 | 0.00 | 39 | 999.3 |
| 20260510124004 | 15 | 82 | 6.4 | 11.3 | 0.00 | 0.00 | 0.00 | 40 | 999.4 |
| 20260510123504 | 15 | 59 | 8.0 | 11.3 | 0.00 | 0.00 | 0.00 | 40 | 999.4 |
| 20260510123215 | 15 | 47 | 4.8 | 12.9 | 0.00 | 0.00 | 0.00 | 40 | 999.6 |
| 20260510122504 | 15 | 63 | 4.8 | 12.9 | 0.00 | 0.00 | 0.00 | 42 | 999.6 |
| 20260510122004 | 14 | 38 | 6.4 | 14.5 | 0.00 | 0.00 | 0.00 | 42 | 999.8 |
| 20260510121504 | 14 | 28 | 6.4 | 17.7 | 0.00 | 0.00 | 0.00 | 41 | 999.7 |
| 20260510121004 | 15 | 71 | 3.2 | 17.7 | 0.00 | 0.00 | 0.00 | 41 | 999.9 |
| 20260510120504 | 15 | 75 | 3.2 | 14.5 | 0.00 | 0.00 | 0.00 | 41 | 999.8 |
| 20260510120004 | 14 | 64 | 6.4 | 14.5 | 0.00 | 0.00 | 0.00 | 43 | 999.9 |
| 20260510115504 | 13 | 66 | 4.8 | 12.9 | 0.00 | 0.00 | 0.00 | 42 | 1000.0 |
| 20260510115004 | 14 | 63 | 6.4 | 12.9 | 0.00 | 0.00 | 0.00 | 41 | 1000.3 |
| 20260510114504 | 14 | 65 | 4.8 | 12.9 | 0.00 | 0.00 | 0.00 | 41 | 1000.3 |
| 20260510114004 | 15 | 50 | 3.2 | 8.0 | 0.00 | 0.00 | 0.00 | 41 | 1000.3 |
| 20260510113504 | 15 | 51 | 6.4 | 12.9 | 0.00 | 0.00 | 0.00 | 41 | 1000.3 |
| 20260510113004 | 14 | 62 | 6.4 | 12.9 | 0.00 | 0.00 | 0.00 | 41 | 1000.3 |
| 20260510112504 | 13 | 52 | 6.4 | 12.9 | 0.00 | 0.00 | 0.00 | 40 | 1000.6 |
| 20260510112004 | 13 | 43 | 8.0 | 12.9 | 0.00 | 0.00 | 0.00 | 40 | 1000.6 |
| 20260510111504 | 14 | 40 | 4.8 | 9.7 | 0.00 | 0.00 | 0.00 | 41 | 1000.6 |
| 20260510111004 | 14 | 13 | 4.8 | 12.9 | 0.00 | 0.00 | 0.00 | 43 | 1001.0 |
| 20260510110504 | 13 | 27 | 4.8 | 14.5 | 0.00 | 0.00 | 0.00 | 42 | 1000.9 |
| 20260510110005 | 13 | 59 | 4.8 | 14.5 | 0.00 | 0.00 | 0.00 | 42 | 1000.9 |
| 20260510105504 | 13 | 48 | 8.0 | 12.9 | 0.00 | 0.00 | 0.00 | 43 | 1000.9 |
| 20260510105004 | 13 | 51 | 9.7 | 12.9 | 0.00 | 0.00 | 0.00 | 43 | 1000.9 |
| 20260510104504 | 13 | 60 | 6.4 | 12.9 | 0.00 | 0.00 | 0.00 | 42 | 1001.2 |
| 20260510104004 | 13 | 56 | 6.4 | 17.7 | 0.00 | 0.00 | 0.00 | 45 | 1001.1 |
| 20260510103713 | 13 | 57 | 3.2 | 17.7 | 0.00 | 0.00 | 0.00 | 47 | 1001.2 |
| 20260510103004 | 12 | 67 | 11.3 | 17.7 | 0.00 | 0.00 | 0.00 | 46 | 1001.2 |
| 20260510102504 | 12 | 37 | 9.7 | 12.9 | 0.00 | 0.00 | 0.00 | 46 | 1001.3 |
| 20260510102004 | 12 | 18 | 4.8 | 9.7 | 0.00 | 0.00 | 0.00 | 49 | 1001.1 |
| 20260510101504 | 12 | 34 | 6.4 | 14.5 | 0.00 | 0.00 | 0.00 | 46 | 1001.2 |
| 20260510101004 | 12 | 53 | 4.8 | 14.5 | 0.00 | 0.00 | 0.00 | 48 | 1001.3 |
| 20260510100716 | 12 | 57 | 9.7 | 14.5 | 0.00 | 0.00 | 0.00 | 48 | 1001.2 |
| 20260510100005 | 12 | 88 | 9.7 | 17.7 | 0.00 | 0.00 | 0.00 | 49 | 1001.5 |
| 20260510095504 | 12 | 82 | 12.9 | 17.7 | 0.00 | 0.00 | 0.00 | 50 | 1001.5 |
| 20260510095004 | 12 | 48 | 6.4 | 14.5 | 0.00 | 0.00 | 0.00 | 51 | 1001.7 |
| 20260510094504 | 12 | 41 | 6.4 | 14.5 | 0.00 | 0.00 | 0.00 | 51 | 1001.5 |
| 20260510094216 | 12 | 49 | 9.7 | 14.5 | 0.00 | 0.00 | 0.00 | 51 | 1001.7 |
| 20260510093504 | 11 | 69 | 8.0 | 12.9 | 0.00 | 0.00 | 0.00 | 54 | 1001.7 |
| 20260510093004 | 11 | 63 | 9.7 | 12.9 | 0.00 | 0.00 | 0.00 | 56 | 1001.8 |
| 20260510092504 | 11 | 42 | 6.4 | 12.9 | 0.00 | 0.00 | 0.00 | 56 | 1001.6 |
| 20260510092218 | 11 | 36 | 6.4 | 12.9 | 0.00 | 0.00 | 0.00 | 58 | 1001.6 |
| 20260510091504 | 12 | 34 | 4.8 | 8.0 | 0.00 | 0.00 | 0.00 | 60 | 1001.7 |
| 20260510091004 | 12 | 360 | 3.2 | 8.0 | 0.00 | 0.00 | 0.00 | 59 | 1001.7 |
| 20260510090504 | 12 | 38 | 3.2 | 14.5 | 0.00 | 0.00 | 0.00 | 63 | 1001.8 |
| 20260510090215 | 11 | 42 | 3.2 | 14.5 | 0.00 | 0.00 | 0.00 | 63 | 1001.8 |
| 20260510085504 | 11 | 49 | 4.8 | 11.3 | 0.00 | 0.00 | 0.00 | 62 | 1002.2 |
| 20260510085004 | 11 | 53 | 4.8 | 11.3 | 0.00 | 0.00 | 0.00 | 63 | 1002.1 |
| 20260510084504 | 11 | 32 | 3.2 | 6.4 | 0.00 | 0.00 | 0.00 | 64 | 1002.1 |
| 20260510084217 | 11 | 30 | 3.2 | 6.4 | 0.00 | 0.00 | 0.00 | 64 | 1002.1 |
| 20260510083504 | 10 | 46 | 3.2 | 8.0 | 0.00 | 0.00 | 0.00 | 64 | 1002.1 |
| 20260510083004 | 10 | 40 | 4.8 | 8.0 | 0.00 | 0.00 | 0.00 | 64 | 1002.1 |
| 20260510082716 | 10 | 34 | 4.8 | 9.7 | 0.00 | 0.00 | 0.00 | 64 | 1001.8 |
| 20260510082004 | 10 | 21 | 3.2 | 11.3 | 0.00 | 0.00 | 0.00 | 66 | 1002.2 |
| 20260510081717 | 10 | 20 | 6.4 | 11.3 | 0.00 | 0.00 | 0.00 | 66 | 1002.2 |
| 20260510081005 | 10 | 41 | 6.4 | 12.9 | 0.00 | 0.00 | 0.00 | 67 | 1002.2 |
| 20260510080504 | 10 | 52 | 8.0 | 12.9 | 0.00 | 0.00 | 0.00 | 66 | 1002.3 |
| 20260510080004 | 10 | 64 | 3.2 | 12.9 | 0.00 | 0.00 | 0.00 | 66 | 1002.2 |
| 20260510075505 | 10 | 56 | 6.4 | 12.9 | 0.00 | 0.00 | 0.00 | 65 | 1002.1 |
| 20260510075004 | 10 | 51 | 4.8 | 14.5 | 0.00 | 0.00 | 0.00 | 65 | 1002.1 |
| 20260510074504 | 10 | 52 | 3.2 | 14.5 | 0.00 | 0.00 | 0.00 | 64 | 1002.0 |
| 20260510074004 | 10 | 52 | 8.0 | 14.5 | 0.00 | 0.00 | 0.00 | 65 | 1002.1 |
| 20260510073504 | 10 | 36 | 6.4 | 12.9 | 0.00 | 0.00 | 0.00 | 65 | 1002.2 |
| 20260510073004 | 10 | 22 | 3.2 | 9.7 | 0.00 | 0.00 | 0.00 | 67 | 1002.2 |
| 20260510072504 | 10 | 35 | 6.4 | 11.3 | 0.00 | 0.00 | 0.00 | 67 | 1002.3 |
| 20260510072004 | 10 | 30 | 6.4 | 11.3 | 0.00 | 0.00 | 0.00 | 67 | 1002.2 |
| 20260510071504 | 10 | 42 | 4.8 | 11.3 | 0.00 | 0.00 | 0.00 | 68 | 1002.3 |
| 20260510071004 | 10 | 41 | 3.2 | 12.9 | 0.00 | 0.00 | 0.00 | 69 | 1002.2 |
| 20260510070504 | 10 | 31 | 6.4 | 17.7 | 0.00 | 0.00 | 0.00 | 69 | 1002.3 |
| 20260510070004 | 10 | 31 | 6.4 | 17.7 | 0.00 | 0.00 | 0.00 | 69 | 1002.2 |
| 20260510065504 | 10 | 50 | 4.8 | 9.7 | 0.00 | 0.00 | 0.00 | 70 | 1002.2 |
| 20260510065217 | 10 | 41 | 3.2 | 9.7 | 0.00 | 0.00 | 0.00 | 70 | 1002.2 |
| 20260510064504 | 10 | 21 | 3.2 | 6.4 | 0.00 | 0.00 | 0.00 | 71 | 1002.2 |
| 20260510064004 | 10 | 38 | 3.2 | 8.0 | 0.00 | 0.00 | 0.00 | 72 | 1002.2 |
| 20260510063716 | 9 | 41 | 4.8 | 11.3 | 0.00 | 0.00 | 0.00 | 72 | 1002.1 |
| 20260510063004 | 9 | 36 | 4.8 | 11.3 | 0.00 | 0.00 | 0.00 | 72 | 1002.2 |
| 20260510062504 | 9 | 50 | 3.2 | 12.9 | 0.00 | 0.00 | 0.00 | 72 | 1002.2 |
| 20260510062004 | 9 | 32 | 4.8 | 12.9 | 0.00 | 0.00 | 0.00 | 73 | 1002.2 |
| 20260510061504 | 9 | 7 | 3.2 | 9.7 | 0.00 | 0.00 | 0.00 | 73 | 1002.2 |
| 20260510061004 | 8 | 22 | 6.4 | 9.7 | 0.00 | 0.00 | 0.00 | 73 | 1002.1 |
| 20260510060504 | 8 | 24 | 3.2 | 6.4 | 0.00 | 0.00 | 0.00 | 73 | 1002.4 |
| 20260510060005 | 8 | 11 | 3.2 | 6.4 | 0.00 | 0.00 | 0.00 | 73 | 1002.4 |
| 20260510055504 | 8 | 7 | 3.2 | 6.4 | 0.00 | 0.00 | 0.00 | 73 | 1002.2 |
| 20260510055004 | 8 | 11 | 4.8 | 6.4 | 0.00 | 0.00 | 0.00 | 73 | 1002.3 |
| 20260510054716 | 8 | 13 | 3.2 | 6.4 | 0.00 | 0.00 | 0.00 | 73 | 1002.4 |
| 20260510054004 | 8 | 7 | 3.2 | 6.4 | 0.00 | 0.00 | 0.00 | 73 | 1002.5 |
| 20260510053504 | 8 | 2 | 3.2 | 6.4 | 0.00 | 0.00 | 0.00 | 73 | 1002.4 |
| 20260510053004 | 8 | 8 | 3.2 | 6.4 | 0.00 | 0.00 | 0.00 | 73 | 1002.2 |
| 20260510052504 | 8 | 32 | 3.2 | 8.0 | 0.00 | 0.00 | 0.00 | 72 | 1002.4 |
| 20260510052215 | 8 | 33 | 4.8 | 9.7 | 0.00 | 0.00 | 0.00 | 72 | 1002.2 |
| 20260510051504 | 8 | 17 | 4.8 | 9.7 | 0.00 | 0.00 | 0.00 | 73 | 1002.0 |
| 20260510051216 | 8 | 14 | 4.8 | 9.7 | 0.00 | 0.00 | 0.00 | 73 | 1001.9 |
| 20260510050504 | 8 | 26 | 4.8 | 12.9 | 0.00 | 0.00 | 0.00 | 73 | 1001.9 |
| 20260510050004 | 8 | 20 | 4.8 | 9.7 | 0.00 | 0.00 | 0.00 | 73 | 1002.2 |
| 20260510045504 | 8 | 21 | 4.8 | 11.3 | 0.00 | 0.00 | 0.00 | 73 | 1002.3 |
| 20260510045004 | 8 | 12 | 3.2 | 11.3 | 0.00 | 0.00 | 0.00 | 74 | 1002.1 |
| 20260510044504 | 8 | 1 | 6.4 | 11.3 | 0.00 | 0.00 | 0.00 | 74 | 1002.0 |
| 20260510044004 | 8 | 4 | 3.2 | 6.4 | 0.00 | 0.00 | 0.00 | 74 | 1002.2 |
| 20260510043504 | 8 | 18 | 3.2 | 6.4 | 0.00 | 0.00 | 0.00 | 74 | 1002.3 |
| 20260510043004 | 8 | 2 | 3.2 | 6.4 | 0.00 | 0.00 | 0.00 | 74 | 1002.2 |
| 20260510042504 | 8 | 1 | 3.2 | 6.4 | 0.00 | 0.00 | 0.00 | 75 | 1002.2 |
| 20260510042004 | 8 | 18 | 1.6 | 6.4 | 0.00 | 0.00 | 0.00 | 75 | 1002.2 |
| 20260510041504 | 8 | 359 | 3.2 | 6.4 | 0.00 | 0.00 | 0.00 | 75 | 1002.3 |
| 20260510041004 | 8 | 1 | 1.6 | 6.4 | 0.00 | 0.00 | 0.00 | 75 | 1002.5 |
| 20260510040504 | 8 | 18 | 3.2 | 6.4 | 0.00 | 0.00 | 0.00 | 76 | 1002.3 |
| 20260510040004 | 8 | 10 | 3.2 | 6.4 | 0.00 | 0.00 | 0.00 | 76 | 1002.1 |
| 20260510035504 | 8 | 360 | 3.2 | 6.4 | 0.00 | 0.00 | 0.00 | 76 | 1002.2 |
| 20260510035004 | 8 | 14 | 1.6 | 6.4 | 0.00 | 0.00 | 0.00 | 76 | 1002.3 |
| 20260510034504 | 8 | 41 | 1.6 | 6.4 | 0.00 | 0.00 | 0.00 | 76 | 1002.3 |
| 20260510034004 | 8 | 41 | 3.2 | 6.4 | 0.00 | 0.00 | 0.00 | 77 | 1002.4 |
| 20260510033504 | 8 | 49 | 3.2 | 11.3 | 0.00 | 0.00 | 0.00 | 77 | 1002.2 |
| 20260510033004 | 8 | 45 | 3.2 | 11.3 | 0.00 | 0.00 | 0.00 | 77 | 1002.2 |
| 20260510032504 | 8 | 39 | 6.4 | 11.3 | 0.00 | 0.00 | 0.00 | 77 | 1002.1 |
| 20260510032004 | 8 | 35 | 4.8 | 9.7 | 0.00 | 0.00 | 0.00 | 77 | 1002.1 |
| 20260510031504 | 8 | 19 | 3.2 | 6.4 | 0.00 | 0.00 | 0.00 | 77 | 1002.2 |
| 20260510031004 | 8 | 10 | 3.2 | 6.4 | 0.00 | 0.00 | 0.00 | 77 | 1002.6 |
| 20260510030504 | 8 | 10 | 3.2 | 6.4 | 0.00 | 0.00 | 0.00 | 77 | 1002.5 |
| 20260510030004 | 8 | 37 | 3.2 | 6.4 | 0.00 | 0.00 | 0.00 | 77 | 1002.7 |
| 20260510025504 | 9 | 34 | 3.2 | 6.4 | 0.00 | 0.00 | 0.00 | 77 | 1002.7 |
| 20260510025004 | 9 | 16 | 3.2 | 6.4 | 0.00 | 0.00 | 0.00 | 78 | 1002.7 |
| 20260510024504 | 9 | 17 | 3.2 | 6.4 | 0.00 | 0.00 | 0.00 | 78 | 1002.6 |
| 20260510024004 | 9 | 19 | 4.8 | 6.4 | 0.00 | 0.00 | 0.00 | 78 | 1002.7 |
| 20260510023504 | 9 | 16 | 4.8 | 6.4 | 0.00 | 0.00 | 0.00 | 79 | 1002.7 |
| 20260510023216 | 9 | 19 | 3.2 | 6.4 | 0.00 | 0.00 | 0.00 | 79 | 1002.6 |
| 20260510022504 | 9 | 36 | 3.2 | 8.0 | 0.00 | 0.00 | 0.00 | 79 | 1002.6 |
| 20260510022004 | 9 | 31 | 3.2 | 8.0 | 0.00 | 0.00 | 0.00 | 80 | 1002.6 |
| 20260510021504 | 9 | 25 | 4.8 | 8.0 | 0.00 | 0.00 | 0.00 | 80 | 1002.6 |
| 20260510021004 | 9 | 26 | 3.2 | 6.4 | 0.00 | 0.00 | 0.00 | 80 | 1002.5 |
| 20260510020504 | 9 | 7 | 3.2 | 8.0 | 0.00 | 0.00 | 0.00 | 80 | 1002.3 |
| 20260510020005 | 9 | 358 | 3.2 | 8.0 | 0.00 | 0.00 | 0.00 | 81 | 1002.3 |
| 20260510015504 | 9 | 359 | 3.2 | 6.4 | 0.00 | 0.00 | 0.00 | 81 | 1002.3 |
| 20260510015004 | 9 | 360 | 3.2 | 8.0 | 0.00 | 0.00 | 0.00 | 81 | 1002.2 |
| 20260510014504 | 9 | 4 | 3.2 | 8.0 | 0.00 | 0.00 | 0.00 | 81 | 1002.2 |
| 20260510014004 | 9 | 23 | 3.2 | 6.4 | 0.00 | 0.00 | 0.00 | 81 | 1002.3 |
| 20260510013504 | 9 | 29 | 1.6 | 6.4 | 0.00 | 0.00 | 0.00 | 81 | 1002.4 |
| 20260510013004 | 9 | 20 | 3.2 | 6.4 | 0.00 | 0.00 | 0.00 | 81 | 1002.5 |
| 20260510012504 | 9 | 21 | 3.2 | 6.4 | 0.00 | 0.00 | 0.00 | 81 | 1002.4 |
| 20260510012004 | 9 | 38 | 3.2 | 6.4 | 0.00 | 0.00 | 0.00 | 81 | 1002.3 |
| 20260510011504 | 9 | 48 | 6.4 | 6.4 | 0.00 | 0.00 | 0.00 | 81 | 1002.3 |
| 20260510011004 | 9 | 38 | 3.2 | 6.4 | 0.00 | 0.00 | 0.00 | 82 | 1002.3 |
| 20260510010504 | 9 | 45 | 3.2 | 6.4 | 0.00 | 0.00 | 0.00 | 82 | 1002.6 |
| 20260510010005 | 9 | 34 | 3.2 | 6.4 | 0.00 | 0.00 | 0.00 | 82 | 1002.4 |
| 20260510005504 | 9 | 7 | 3.2 | 6.4 | 0.00 | 0.00 | 0.00 | 82 | 1002.3 |
| 20260510005216 | 9 | 17 | 3.2 | 8.0 | 0.00 | 0.00 | 0.00 | 82 | 1002.5 |
| 20260510004504 | 9 | 38 | 3.2 | 8.0 | 0.00 | 0.00 | 0.00 | 83 | 1002.5 |
| 20260510004004 | 9 | 67 | 1.6 | 8.0 | 0.00 | 0.00 | 0.00 | 83 | 1002.4 |
| 20260510003504 | 9 | 58 | 3.2 | 8.0 | 0.00 | 0.00 | 0.00 | 83 | 1002.7 |
| 20260510003004 | 9 | 46 | 3.2 | 6.4 | 0.00 | 0.00 | 0.00 | 83 | 1002.6 |
| 20260510002504 | 9 | 33 | 3.2 | 6.4 | 0.00 | 0.00 | 0.00 | 83 | 1002.4 |
| 20260510002004 | 9 | 16 | 3.2 | 6.4 | 0.00 | 0.00 | 0.00 | 84 | 1002.3 |
| 20260510001504 | 9 | 17 | 3.2 | 6.4 | 0.00 | 0.00 | 0.00 | 84 | 1002.6 |
| 20260510001004 | 9 | 60 | 1.6 | 6.4 | 0.00 | 0.00 | 0.00 | 84 | 1002.5 |
| 20260510000504 | 9 | 54 | 1.6 | 9.7 | 0.00 | 0.00 | 0.00 | 85 | 1002.4 |
| 20260510000005 | 9 | 26 | 3.2 | 9.7 | 0.00 | 0.00 | 0.00 | 85 | 1002.6 |
| 20260509235504 | 9 | 19 | 6.4 | 9.7 | 0.00 | 0.00 | 0.00 | 85 | 1002.2 |
| 20260509235004 | 9 | 23 | 3.2 | 9.7 | 0.00 | 0.00 | 0.00 | 85 | 1002.4 |
| 20260509234504 | 9 | 8 | 3.2 | 8.0 | 0.00 | 0.00 | 0.00 | 85 | 1002.6 |
| 20260509234004 | 9 | 6 | 3.2 | 8.0 | 0.00 | 0.00 | 0.00 | 85 | 1002.7 |